Regional Weather Roundup
Issued by NWS Green Bay, WI

Home | Current Version | Previous Version | Graphics & Text | Print | Product List | Glossary Off
Versions: 1 2 3 4 5 6 7 8 9 10 11 12 13 14 15 16 17 18 19 20 21 22 23 24 25 26 27 28 29 30 31 32 33 34 35 36 37 38 39 40 41 42 43 44 45 46 47 48 49 50

000
ASUS43 KGRB 291300
RWRGRB

NORTH-CENTRAL AND NORTHEAST WISCONSIN REGIONAL WEATHER ROUNDUP
NATIONAL WEATHER SERVICE GREEN BAY WI
800 AM CDT FRI MAY 29 2015

WIZ005-009-010>012-018-019-291400-
NORTH CENTRAL WISCONSIN

CITY           SKY/WX    TMP DP  RH WIND       PRES   REMARKS
IRONWOOD       NOT AVBL
MANITOWISH WTR NOT AVBL
ARBOR VITAE    NOT AVBL
EAGLE RIVER    NOT AVBL
LAND O LAKES   NOT AVBL
RHINELANDER    CLOUDY    62  56  80 S3        29.95F
PHILLIPS       NOT AVBL
ANTIGO         NOT AVBL
TOMAHAWK       NOT AVBL
MERRILL        NOT AVBL
$$

WIZ013-073-291400-
NORTHEAST WISCONSIN

CITY           SKY/WX    TMP DP  RH WIND       PRES   REMARKS
IRON MOUNTAIN  CLOUDY    60  56  86 SE3       29.95F
MARINETTE      NOT AVBL
$$

WIZ017-030-035>037-045-291400-
CENTRAL WISCONSIN

CITY           SKY/WX    TMP DP  RH WIND       PRES   REMARKS
MEDFORD        NOT AVBL
WAUSAU         CLOUDY    64  59  83 S5        29.95S
MOSINEE        MOSUNNY   63  61  94 S9        29.97F
MARSHFIELD     MOSUNNY   65  60  84 S12       29.94F
WISC RAPIDS    CLOUDY    64  60  87 S7        29.96F
STEVENS POINT  NOT AVBL
WAUPACA        NOT AVBL
SHAWANO        NOT AVBL
CLINTONVILLE   NOT AVBL
$$

WIZ038-039-048-051-291400-
FOX VALLEY

CITY           SKY/WX    TMP DP  RH WIND       PRES   REMARKS
NWS GREEN BAY  LGT RAIN  66  59  78 S5        29.98F
APPLETON       LGT RAIN  64  59  82 S7        29.99S
OSHKOSH        CLOUDY    64  59  83 S7        29.99S
FOND DU LAC    LGT RAIN  66  61  84 S5        30.01R
$$

WIZ022-050-052-291400-
EAST CENTRAL WISCONSIN

CITY           SKY/WX    TMP DP  RH WIND       PRES   REMARKS
STURGEON BAY   NOT AVBL
MANITOWOC      NOT AVBL
SHEBOYGAN      CLOUDY    63  57  81 SW5       30.01S
$$

LMZ563-521-522-541>543-291400-
LAKESHORE

STATION/POSITION TIME  TEMP    WIND        PRES    VSBY  WAVE
                       AIR SEA DIR/SP/G                  HT/PER
                 (UTC) (F)     (DEG/KT/KT) (MB)    (MI)  (FT/S)
SHEBOYGAN LKSHOR 1200   52     170/  8/  8 1016.6R
KEWAUNEE LKSHORE 1200   51     170/  5/  8 1015.4F
ALGOMA MARINA    1223          200/  5/  6   N/A
TWO RIVERS CG    1240   50                 1015.8   3 1/2  1
NORTHPORT PIER   1200   60     150/  9/ 14 1015.2F
N MID LAKE BUOY  1150   43 36  180/  8/  8 1016.5F         1
SISTER BAY LKSHO 1203   62     160/ 18/ 23   N/A
STURGEON BAY CG  1200   49     170/  6     1017.5      6   1
CHAMBERS ISLAND  1200   61     160/  7/ 12 1015.2S
MENOMINEE LKSHOR 1200   64     180/ 11/ 14 1015.7F
$$


USA.gov is the U.S. government's official web portal to all federal, state and local government web resources and services.